Year,Month,Day,Hour,Minute,Value (Times are PST for temperature in C)
2017,05,23,00,00,15.90
2017,05,23,00,01,15.90
2017,05,23,00,02,15.80
2017,05,23,00,03,15.80
2017,05,23,00,04,15.80
2017,05,23,00,05,15.80
2017,05,23,00,06,15.80
2017,05,23,00,07,15.80
2017,05,23,00,08,15.80
2017,05,23,00,09,15.80
2017,05,23,00,10,15.90
2017,05,23,00,11,15.90
2017,05,23,00,12,15.90
2017,05,23,00,13,15.90
2017,05,23,00,14,16.00
2017,05,23,00,15,16.00
2017,05,23,00,16,16.10
2017,05,23,00,17,16.10
2017,05,23,00,18,16.10
2017,05,23,00,19,16.10
2017,05,23,00,20,16.10
2017,05,23,00,21,16.10
2017,05,23,00,22,16.10
2017,05,23,00,23,16.10
2017,05,23,00,24,16.10
2017,05,23,00,25,16.10
2017,05,23,00,26,16.10
2017,05,23,00,27,16.10
2017,05,23,00,28,16.10
2017,05,23,00,29,16.10
2017,05,23,00,30,16.10
2017,05,23,00,31,16.10
2017,05,23,00,32,16.10
2017,05,23,00,33,16.10
2017,05,23,00,34,16.00
2017,05,23,00,35,16.00
2017,05,23,00,36,16.00
2017,05,23,00,37,15.90
2017,05,23,00,38,15.90
2017,05,23,00,39,15.90
2017,05,23,00,40,15.90
2017,05,23,00,41,15.80
2017,05,23,00,42,15.80
2017,05,23,00,43,15.80
2017,05,23,00,44,15.70
2017,05,23,00,45,15.70
2017,05,23,00,46,15.70
2017,05,23,00,47,15.70
2017,05,23,00,48,15.70
2017,05,23,00,49,15.70
2017,05,23,00,50,15.70
2017,05,23,00,51,15.70
2017,05,23,00,52,15.70
2017,05,23,00,53,15.60
2017,05,23,00,54,15.60
2017,05,23,00,55,15.60
2017,05,23,00,56,15.60
2017,05,23,00,57,15.60
2017,05,23,00,58,15.50
2017,05,23,00,59,15.40
2017,05,23,01,00,15.40
2017,05,23,01,01,15.40
2017,05,23,01,02,15.30
2017,05,23,01,03,15.30
2017,05,23,01,04,15.30
2017,05,23,01,05,15.30
2017,05,23,01,06,15.30
2017,05,23,01,07,15.30
2017,05,23,01,08,15.30
2017,05,23,01,09,15.30
2017,05,23,01,10,15.20
2017,05,23,01,11,15.20
2017,05,23,01,12,15.20
2017,05,23,01,13,15.20
2017,05,23,01,14,15.10
2017,05,23,01,15,15.10
2017,05,23,01,16,15.10
2017,05,23,01,17,15.00
2017,05,23,01,18,15.00
2017,05,23,01,19,15.00
2017,05,23,01,20,14.90
2017,05,23,01,21,14.90
2017,05,23,01,22,14.90
2017,05,23,01,23,14.90
2017,05,23,01,24,14.90
2017,05,23,01,25,14.80
2017,05,23,01,26,14.80
2017,05,23,01,27,14.80
2017,05,23,01,28,14.80
2017,05,23,01,29,14.70
2017,05,23,01,30,14.70
2017,05,23,01,31,14.70
2017,05,23,01,32,14.70
2017,05,23,01,33,14.70
2017,05,23,01,34,14.70
2017,05,23,01,35,14.70
2017,05,23,01,36,14.70
2017,05,23,01,37,14.70
2017,05,23,01,38,14.60
2017,05,23,01,39,14.60
2017,05,23,01,40,14.60
2017,05,23,01,41,14.50
2017,05,23,01,42,14.50
2017,05,23,01,43,14.40
2017,05,23,01,44,14.40
2017,05,23,01,45,14.40
2017,05,23,01,46,14.40
2017,05,23,01,47,14.30
2017,05,23,01,48,14.30
2017,05,23,01,49,14.30
2017,05,23,01,50,14.20
2017,05,23,01,51,14.20
2017,05,23,01,52,14.20
2017,05,23,01,53,14.10
2017,05,23,01,54,14.10
2017,05,23,01,55,14.10
2017,05,23,01,56,14.10
2017,05,23,01,57,14.10
2017,05,23,01,58,14.10
2017,05,23,01,59,14.10
2017,05,23,02,00,14.10
2017,05,23,02,01,14.10
2017,05,23,02,02,14.10
2017,05,23,02,03,14.10
2017,05,23,02,04,14.10
2017,05,23,02,05,14.10
2017,05,23,02,06,14.00
2017,05,23,02,07,14.00
2017,05,23,02,08,14.00
2017,05,23,02,09,14.00
2017,05,23,02,10,14.00
2017,05,23,02,11,14.00
2017,05,23,02,12,14.00
2017,05,23,02,13,14.00
2017,05,23,02,14,14.00
2017,05,23,02,15,14.00
2017,05,23,02,16,13.90
2017,05,23,02,17,13.90
2017,05,23,02,18,13.90
2017,05,23,02,19,13.90
2017,05,23,02,20,13.90
2017,05,23,02,21,13.90
2017,05,23,02,22,13.80
2017,05,23,02,23,13.80
2017,05,23,02,24,13.80
2017,05,23,02,25,13.80
2017,05,23,02,26,13.80
2017,05,23,02,27,13.80
2017,05,23,02,28,13.80
2017,05,23,02,29,13.80
2017,05,23,02,30,13.80
2017,05,23,02,31,13.80
2017,05,23,02,32,13.80
2017,05,23,02,33,13.80
2017,05,23,02,34,13.80
2017,05,23,02,35,13.80
2017,05,23,02,36,13.80
2017,05,23,02,37,13.80
2017,05,23,02,38,13.80
2017,05,23,02,39,13.80
2017,05,23,02,40,13.80
2017,05,23,02,41,13.80
2017,05,23,02,42,13.80
2017,05,23,02,43,13.80
2017,05,23,02,44,13.80
2017,05,23,02,45,13.80
2017,05,23,02,46,13.70
2017,05,23,02,47,13.70
2017,05,23,02,48,13.60
2017,05,23,02,49,13.60
2017,05,23,02,50,13.60
2017,05,23,02,51,13.50
2017,05,23,02,52,13.50
2017,05,23,02,53,13.40
2017,05,23,02,54,13.40
2017,05,23,02,55,13.30
2017,05,23,02,56,13.30
2017,05,23,02,57,13.30
2017,05,23,02,58,13.20
2017,05,23,02,59,13.20
2017,05,23,03,00,13.10
2017,05,23,03,01,13.10
2017,05,23,03,02,13.10
2017,05,23,03,03,13.00
2017,05,23,03,04,13.00
2017,05,23,03,05,13.00
2017,05,23,03,06,12.90
2017,05,23,03,07,12.90
2017,05,23,03,08,12.90
2017,05,23,03,09,12.90
2017,05,23,03,10,12.90
2017,05,23,03,11,12.90
2017,05,23,03,12,12.90
2017,05,23,03,13,13.00
2017,05,23,03,14,13.00
2017,05,23,03,15,13.10
2017,05,23,03,16,13.10
2017,05,23,03,17,13.10
2017,05,23,03,18,13.10
2017,05,23,03,19,13.10
2017,05,23,03,20,13.10
2017,05,23,03,21,13.10
2017,05,23,03,22,13.10
2017,05,23,03,23,13.10
2017,05,23,03,24,13.10
2017,05,23,03,25,13.10
2017,05,23,03,26,13.10
2017,05,23,03,27,13.10
2017,05,23,03,28,13.00
2017,05,23,03,29,13.00
2017,05,23,03,30,13.00
2017,05,23,03,31,13.00
2017,05,23,03,32,13.00
2017,05,23,03,33,13.00
2017,05,23,03,34,13.00
2017,05,23,03,35,13.00
2017,05,23,03,36,13.00
2017,05,23,03,37,12.90
2017,05,23,03,38,12.90
2017,05,23,03,39,12.90
2017,05,23,03,40,12.80
2017,05,23,03,41,12.80
2017,05,23,03,42,12.80
2017,05,23,03,43,12.80
2017,05,23,03,44,12.80
2017,05,23,03,45,12.80
2017,05,23,03,46,12.90
2017,05,23,03,47,12.90
2017,05,23,03,48,12.90
2017,05,23,03,49,13.00
2017,05,23,03,50,13.10
2017,05,23,03,51,13.10
2017,05,23,03,52,13.20
2017,05,23,03,53,13.20
2017,05,23,03,54,13.30
2017,05,23,03,55,13.30
2017,05,23,03,56,13.40
2017,05,23,03,57,13.40
2017,05,23,03,58,13.40
2017,05,23,03,59,13.40
2017,05,23,04,00,13.50
2017,05,23,04,01,13.50
2017,05,23,04,02,13.60
2017,05,23,04,03,13.60
2017,05,23,04,04,13.60
2017,05,23,04,05,13.60
2017,05,23,04,06,13.70
2017,05,23,04,07,13.70
2017,05,23,04,08,13.70
2017,05,23,04,09,13.70
2017,05,23,04,10,13.70
2017,05,23,04,11,13.70
2017,05,23,04,12,13.60
2017,05,23,04,13,13.60
2017,05,23,04,14,13.50
2017,05,23,04,15,13.40
2017,05,23,04,16,13.40
2017,05,23,04,17,13.30
2017,05,23,04,18,13.30
2017,05,23,04,19,13.20
2017,05,23,04,20,13.20
2017,05,23,04,21,13.20
2017,05,23,04,22,13.20
2017,05,23,04,23,13.10
2017,05,23,04,24,13.00
2017,05,23,04,25,13.00
2017,05,23,04,26,12.90
2017,05,23,04,27,12.90
2017,05,23,04,28,12.90
2017,05,23,04,29,13.00
2017,05,23,04,30,13.00
2017,05,23,04,31,13.00
2017,05,23,04,32,12.90
2017,05,23,04,33,12.90
2017,05,23,04,34,12.80
2017,05,23,04,35,12.70
2017,05,23,04,36,12.70
2017,05,23,04,37,12.70
2017,05,23,04,38,12.70
2017,05,23,04,39,12.70
2017,05,23,04,40,12.70
2017,05,23,04,41,12.60
2017,05,23,04,42,12.60
2017,05,23,04,43,12.50
2017,05,23,04,44,12.50
2017,05,23,04,45,12.50
2017,05,23,04,46,12.50
2017,05,23,04,47,12.50
2017,05,23,04,48,12.50
2017,05,23,04,49,12.50
2017,05,23,04,50,12.50
2017,05,23,04,51,12.40
2017,05,23,04,52,12.40
2017,05,23,04,53,12.40
2017,05,23,04,54,12.40
2017,05,23,04,55,12.40
2017,05,23,04,56,12.40
2017,05,23,04,57,12.40
2017,05,23,04,58,12.30
2017,05,23,04,59,12.30
2017,05,23,05,00,12.30
2017,05,23,05,01,12.30
2017,05,23,05,02,12.30
2017,05,23,05,03,12.20
2017,05,23,05,04,12.20
2017,05,23,05,05,12.20
2017,05,23,05,06,12.20
2017,05,23,05,07,12.20
2017,05,23,05,08,12.10
2017,05,23,05,09,12.10
2017,05,23,05,10,12.10
2017,05,23,05,11,12.00
2017,05,23,05,12,11.90
2017,05,23,05,13,11.90
2017,05,23,05,14,11.80
2017,05,23,05,15,11.80
2017,05,23,05,16,11.80
2017,05,23,05,17,11.80
2017,05,23,05,18,11.70
2017,05,23,05,19,11.70
2017,05,23,05,20,11.70
2017,05,23,05,21,11.60
2017,05,23,05,22,11.60
2017,05,23,05,23,11.60
2017,05,23,05,24,11.60
2017,05,23,05,25,11.60
2017,05,23,05,26,11.70
2017,05,23,05,27,11.70
2017,05,23,05,28,11.70
2017,05,23,05,29,11.70
2017,05,23,05,30,11.70
2017,05,23,05,31,11.70
2017,05,23,05,32,11.70
2017,05,23,05,33,11.80
2017,05,23,05,34,11.80
2017,05,23,05,35,11.80
2017,05,23,05,36,11.80
2017,05,23,05,37,11.80
2017,05,23,05,38,11.90
2017,05,23,05,39,11.90
2017,05,23,05,40,11.90
2017,05,23,05,41,11.90
2017,05,23,05,42,11.90
2017,05,23,05,43,11.90
2017,05,23,05,44,11.80
2017,05,23,05,45,11.80
2017,05,23,05,46,11.80
2017,05,23,05,47,11.70
2017,05,23,05,48,11.70
2017,05,23,05,49,11.60
2017,05,23,05,50,11.60
2017,05,23,05,51,11.60
2017,05,23,05,52,11.60
2017,05,23,05,53,11.50
2017,05,23,05,54,11.50
2017,05,23,05,55,11.40
2017,05,23,05,56,11.40
2017,05,23,05,57,11.40
2017,05,23,05,58,11.40
2017,05,23,05,59,11.40
2017,05,23,06,00,11.40
2017,05,23,06,01,11.40
2017,05,23,06,02,11.40
2017,05,23,06,03,11.30
2017,05,23,06,04,11.30
2017,05,23,06,05,11.40
2017,05,23,06,06,11.40
2017,05,23,06,07,11.40
2017,05,23,06,08,11.50
2017,05,23,06,09,11.50
2017,05,23,06,10,11.60
2017,05,23,06,11,11.60
2017,05,23,06,12,11.60
2017,05,23,06,13,11.60
2017,05,23,06,14,11.70
2017,05,23,06,15,11.70
2017,05,23,06,16,11.70
2017,05,23,06,17,11.80
2017,05,23,06,18,11.80
2017,05,23,06,19,11.90
2017,05,23,06,20,11.90
2017,05,23,06,21,11.90
2017,05,23,06,22,12.00
2017,05,23,06,23,12.00
2017,05,23,06,24,12.10
2017,05,23,06,25,12.20
2017,05,23,06,26,12.20
2017,05,23,06,27,12.20
2017,05,23,06,28,12.30
2017,05,23,06,29,12.40
2017,05,23,06,30,12.50
2017,05,23,06,31,12.60
2017,05,23,06,32,12.70
2017,05,23,06,33,12.80
2017,05,23,06,34,12.80
2017,05,23,06,35,12.90
2017,05,23,06,36,12.90
2017,05,23,06,37,13.00
2017,05,23,06,38,13.00
2017,05,23,06,39,13.10
2017,05,23,06,40,13.10
2017,05,23,06,41,13.20
2017,05,23,06,42,13.30
2017,05,23,06,43,13.40
2017,05,23,06,44,13.50
2017,05,23,06,45,13.60
2017,05,23,06,46,13.60
2017,05,23,06,47,13.70
2017,05,23,06,48,13.80
2017,05,23,06,49,13.80
2017,05,23,06,50,13.90
2017,05,23,06,51,14.00
2017,05,23,06,52,14.00
2017,05,23,06,53,14.10
2017,05,23,06,54,14.10
2017,05,23,06,55,14.20
2017,05,23,06,56,14.30
2017,05,23,06,57,14.30
2017,05,23,06,58,14.40
2017,05,23,06,59,14.50
2017,05,23,07,00,14.60
2017,05,23,07,01,14.80
2017,05,23,07,02,14.90
2017,05,23,07,03,15.10
2017,05,23,07,04,15.20
2017,05,23,07,05,15.40
2017,05,23,07,06,15.50
2017,05,23,07,07,15.60
2017,05,23,07,08,15.70
2017,05,23,07,09,15.80
2017,05,23,07,10,15.90
2017,05,23,07,11,16.00
2017,05,23,07,12,16.10
2017,05,23,07,13,16.10
2017,05,23,07,14,16.20
2017,05,23,07,15,16.30
2017,05,23,07,16,16.30
2017,05,23,07,17,16.30
2017,05,23,07,18,16.40
2017,05,23,07,19,16.40
2017,05,23,07,20,16.40
2017,05,23,07,21,16.40
2017,05,23,07,22,16.40
2017,05,23,07,23,16.50
2017,05,23,07,24,16.60
2017,05,23,07,25,16.60
2017,05,23,07,26,16.60
2017,05,23,07,27,16.70
2017,05,23,07,28,16.70
2017,05,23,07,29,16.70
2017,05,23,07,30,16.70
2017,05,23,07,31,16.60
2017,05,23,07,32,16.60
2017,05,23,07,33,16.60
2017,05,23,07,34,16.60
2017,05,23,07,35,16.60
2017,05,23,07,36,16.50
2017,05,23,07,37,16.50
2017,05,23,07,38,16.40
2017,05,23,07,39,16.40
2017,05,23,07,40,16.50
2017,05,23,07,41,16.50
2017,05,23,07,42,16.60
2017,05,23,07,43,16.60
2017,05,23,07,44,16.70
2017,05,23,07,45,16.70
2017,05,23,07,46,16.70
2017,05,23,07,47,16.80
2017,05,23,07,48,16.80
2017,05,23,07,49,16.80
2017,05,23,07,50,16.70
2017,05,23,07,51,16.60
2017,05,23,07,52,16.60
2017,05,23,07,53,16.50
2017,05,23,07,54,16.50
2017,05,23,07,55,16.50
2017,05,23,07,56,16.50
2017,05,23,07,57,16.50
2017,05,23,07,58,16.40
2017,05,23,07,59,16.40
2017,05,23,08,00,16.40
2017,05,23,08,01,16.40
2017,05,23,08,02,16.50
2017,05,23,08,03,16.50
2017,05,23,08,04,16.50
2017,05,23,08,05,16.60
2017,05,23,08,06,16.60
2017,05,23,08,07,16.60
2017,05,23,08,08,16.70
2017,05,23,08,09,16.70
2017,05,23,08,10,16.80
2017,05,23,08,11,16.90
2017,05,23,08,12,16.90
2017,05,23,08,13,17.00
2017,05,23,08,14,17.10
2017,05,23,08,15,17.10
2017,05,23,08,16,17.20
2017,05,23,08,17,17.20
2017,05,23,08,18,17.30
2017,05,23,08,19,17.30
2017,05,23,08,20,17.40
2017,05,23,08,21,17.50
2017,05,23,08,22,17.60
2017,05,23,08,23,17.60
2017,05,23,08,24,17.60
2017,05,23,08,25,17.60
2017,05,23,08,26,17.70
2017,05,23,08,27,17.70
2017,05,23,08,28,17.80
2017,05,23,08,29,17.90
2017,05,23,08,30,17.90
2017,05,23,08,31,17.90
2017,05,23,08,32,17.90
2017,05,23,08,33,18.00
2017,05,23,08,34,18.10
2017,05,23,08,35,18.20
2017,05,23,08,36,18.20
2017,05,23,08,37,18.20
2017,05,23,08,38,18.10
2017,05,23,08,39,18.10
2017,05,23,08,40,18.10
2017,05,23,08,41,18.10
2017,05,23,08,42,18.10
2017,05,23,08,43,18.20
2017,05,23,08,44,18.20
2017,05,23,08,45,18.30
2017,05,23,08,46,18.40
2017,05,23,08,47,18.40
2017,05,23,08,48,18.50
2017,05,23,08,49,18.60
2017,05,23,08,50,18.70
2017,05,23,08,51,18.80
2017,05,23,08,52,18.90
2017,05,23,08,53,19.00
2017,05,23,08,54,19.00
2017,05,23,08,55,19.20
2017,05,23,08,56,19.30
2017,05,23,08,57,19.30
2017,05,23,08,58,19.30
2017,05,23,08,59,19.30
2017,05,23,09,00,19.30
2017,05,23,09,01,19.30
2017,05,23,09,02,19.30
2017,05,23,09,03,19.30
2017,05,23,09,04,19.40
2017,05,23,09,05,19.40
2017,05,23,09,06,19.40
2017,05,23,09,07,19.50
2017,05,23,09,08,19.50
2017,05,23,09,09,19.50
2017,05,23,09,10,19.40
2017,05,23,09,11,19.40
2017,05,23,09,12,19.30
2017,05,23,09,13,19.30
2017,05,23,09,14,19.30
2017,05,23,09,15,19.20
2017,05,23,09,16,19.20
2017,05,23,09,17,19.10
2017,05,23,09,18,19.00
2017,05,23,09,19,18.90
2017,05,23,09,20,18.80
2017,05,23,09,21,18.70
2017,05,23,09,22,18.70
2017,05,23,09,23,18.70
2017,05,23,09,24,18.70
2017,05,23,09,25,18.70
2017,05,23,09,26,18.70
2017,05,23,09,27,18.70
2017,05,23,09,28,18.70
2017,05,23,09,29,18.70
2017,05,23,09,30,18.70
2017,05,23,09,31,18.70
2017,05,23,09,32,18.70
2017,05,23,09,33,18.70
2017,05,23,09,34,18.70
2017,05,23,09,35,18.70
2017,05,23,09,36,18.70
2017,05,23,09,37,18.80
2017,05,23,09,38,18.90
2017,05,23,09,39,18.90
2017,05,23,09,40,18.90
2017,05,23,09,41,19.00
2017,05,23,09,42,19.00
2017,05,23,09,43,19.10
2017,05,23,09,44,19.10
2017,05,23,09,45,19.20
2017,05,23,09,46,19.30
2017,05,23,09,47,19.40
2017,05,23,09,48,19.50
2017,05,23,09,49,19.70
2017,05,23,09,50,19.70
2017,05,23,09,51,19.70
2017,05,23,09,52,19.60
2017,05,23,09,53,19.60
2017,05,23,09,54,19.60
2017,05,23,09,55,19.60
2017,05,23,09,56,19.70
2017,05,23,09,57,19.60
2017,05,23,09,58,19.50
2017,05,23,09,59,19.40
2017,05,23,10,00,19.40
2017,05,23,10,01,19.40
2017,05,23,10,02,19.40
2017,05,23,10,03,19.40
2017,05,23,10,04,19.50
2017,05,23,10,05,19.50
2017,05,23,10,06,19.40
2017,05,23,10,07,19.30
2017,05,23,10,08,19.20
2017,05,23,10,09,19.10
2017,05,23,10,10,19.00
2017,05,23,10,11,19.10
2017,05,23,10,12,19.10
2017,05,23,10,13,19.20
2017,05,23,10,14,19.20
2017,05,23,10,15,19.20
2017,05,23,10,16,19.20
2017,05,23,10,17,19.10
2017,05,23,10,18,19.20
2017,05,23,10,19,19.20
2017,05,23,10,20,19.30
2017,05,23,10,21,19.40
2017,05,23,10,22,19.40
2017,05,23,10,23,19.50
2017,05,23,10,24,19.50
2017,05,23,10,25,19.40
2017,05,23,10,26,19.30
2017,05,23,10,27,19.30
2017,05,23,10,28,19.40
2017,05,23,10,29,19.50
2017,05,23,10,30,19.40
2017,05,23,10,31,19.50
2017,05,23,10,32,19.50
2017,05,23,10,33,19.50
2017,05,23,10,34,19.50
2017,05,23,10,35,19.50
2017,05,23,10,36,19.40
2017,05,23,10,37,19.40
2017,05,23,10,38,19.50
2017,05,23,10,39,19.60
2017,05,23,10,40,19.80
2017,05,23,10,41,20.00
2017,05,23,10,42,20.00
2017,05,23,10,43,20.00
2017,05,23,10,44,20.00
2017,05,23,10,45,19.90
2017,05,23,10,46,19.80
2017,05,23,10,47,19.90
2017,05,23,10,48,19.90
2017,05,23,10,49,19.90
2017,05,23,10,50,19.90
2017,05,23,10,51,19.90
2017,05,23,10,52,19.90
2017,05,23,10,53,19.90
2017,05,23,10,54,20.00
2017,05,23,10,55,20.10
2017,05,23,10,56,20.20
2017,05,23,10,57,20.30
2017,05,23,10,58,20.40
2017,05,23,10,59,20.40
2017,05,23,11,00,20.50
2017,05,23,11,01,20.60
2017,05,23,11,02,20.60
2017,05,23,11,03,20.50
2017,05,23,11,04,20.40
2017,05,23,11,05,20.40
2017,05,23,11,06,20.50
2017,05,23,11,07,20.60
2017,05,23,11,08,20.70
2017,05,23,11,09,20.70
2017,05,23,11,10,20.80
2017,05,23,11,11,20.80
2017,05,23,11,12,20.90
2017,05,23,11,13,20.90
2017,05,23,11,14,20.80
2017,05,23,11,15,20.80
2017,05,23,11,16,20.70
2017,05,23,11,17,20.60
2017,05,23,11,18,20.50
2017,05,23,11,19,20.50
2017,05,23,11,20,20.40
2017,05,23,11,21,20.40
2017,05,23,11,22,20.40
2017,05,23,11,23,20.40
2017,05,23,11,24,20.40
2017,05,23,11,25,20.40
2017,05,23,11,26,20.50
2017,05,23,11,27,20.50
2017,05,23,11,28,20.60
2017,05,23,11,29,20.60
2017,05,23,11,30,20.70
2017,05,23,11,31,20.70
2017,05,23,11,32,20.70
2017,05,23,11,33,20.80
2017,05,23,11,34,20.60
2017,05,23,11,35,20.60
2017,05,23,11,36,20.60
2017,05,23,11,37,20.60
2017,05,23,11,38,20.60
2017,05,23,11,39,20.70
2017,05,23,11,40,20.80
2017,05,23,11,41,20.80
2017,05,23,11,42,20.80
2017,05,23,11,43,20.90
2017,05,23,11,44,21.00
2017,05,23,11,45,21.10
2017,05,23,11,46,21.00
2017,05,23,11,47,20.90
2017,05,23,11,48,20.70
2017,05,23,11,49,20.70
2017,05,23,11,50,20.70
2017,05,23,11,51,20.60
2017,05,23,11,52,20.60
2017,05,23,11,53,20.70
2017,05,23,11,54,20.70
2017,05,23,11,55,20.70
2017,05,23,11,56,20.70
2017,05,23,11,57,20.60
2017,05,23,11,58,20.60
2017,05,23,11,59,20.60
2017,05,23,12,00,20.50
2017,05,23,12,01,20.40
2017,05,23,12,02,20.40
2017,05,23,12,03,20.40
2017,05,23,12,04,20.40
2017,05,23,12,05,20.40
2017,05,23,12,06,20.50
2017,05,23,12,07,20.60
2017,05,23,12,08,20.60
2017,05,23,12,09,20.70
2017,05,23,12,10,20.70
2017,05,23,12,11,20.90
2017,05,23,12,12,21.00
2017,05,23,12,13,21.20
2017,05,23,12,14,21.30
2017,05,23,12,15,21.20
2017,05,23,12,16,21.20
2017,05,23,12,17,21.20
2017,05,23,12,18,21.10
2017,05,23,12,19,21.00
2017,05,23,12,20,20.90
2017,05,23,12,21,20.80
2017,05,23,12,22,20.70
2017,05,23,12,23,20.60
2017,05,23,12,24,20.60
2017,05,23,12,25,20.70
2017,05,23,12,26,20.80
2017,05,23,12,27,20.90
2017,05,23,12,28,21.10
2017,05,23,12,29,21.20
2017,05,23,12,30,21.30
2017,05,23,12,31,21.30
2017,05,23,12,32,21.30
2017,05,23,12,33,21.30
2017,05,23,12,34,21.30
2017,05,23,12,35,21.40
2017,05,23,12,36,21.30
2017,05,23,12,37,21.40
2017,05,23,12,38,21.40
2017,05,23,12,39,21.40
2017,05,23,12,40,21.50
2017,05,23,12,41,21.50
2017,05,23,12,42,21.40
2017,05,23,12,43,21.40
2017,05,23,12,44,21.30
2017,05,23,12,45,21.40
2017,05,23,12,46,21.50
2017,05,23,12,47,21.60
2017,05,23,12,48,21.60
2017,05,23,12,49,21.70
2017,05,23,12,50,21.70
2017,05,23,12,51,21.80
2017,05,23,12,52,21.80
2017,05,23,12,53,21.80
2017,05,23,12,54,21.70
2017,05,23,12,55,21.80
2017,05,23,12,56,21.80
2017,05,23,12,57,21.90
2017,05,23,12,58,21.90
2017,05,23,12,59,21.90
2017,05,23,13,00,22.00
2017,05,23,13,01,22.10
2017,05,23,13,02,22.10
2017,05,23,13,03,22.10
2017,05,23,13,04,22.00
2017,05,23,13,05,22.00
2017,05,23,13,06,22.00
2017,05,23,13,07,22.10
2017,05,23,13,08,22.20
2017,05,23,13,09,22.30
2017,05,23,13,10,22.40
2017,05,23,13,11,22.50
2017,05,23,13,12,22.50
2017,05,23,13,13,22.40
2017,05,23,13,14,22.40
2017,05,23,13,15,22.30
2017,05,23,13,16,22.40
2017,05,23,13,17,22.40
2017,05,23,13,18,22.40
2017,05,23,13,19,22.50
2017,05,23,13,20,22.60
2017,05,23,13,21,22.60
2017,05,23,13,22,22.80
2017,05,23,13,23,22.90
2017,05,23,13,24,22.90
2017,05,23,13,25,22.90
2017,05,23,13,26,23.00
2017,05,23,13,27,23.10
2017,05,23,13,28,23.10
2017,05,23,13,29,23.10
2017,05,23,13,30,23.20
2017,05,23,13,31,23.20
2017,05,23,13,32,23.10
2017,05,23,13,33,23.00
2017,05,23,13,34,22.90
2017,05,23,13,35,22.80
2017,05,23,13,36,22.80
2017,05,23,13,37,22.70
2017,05,23,13,38,22.60
2017,05,23,13,39,22.60
2017,05,23,13,40,22.70
2017,05,23,13,41,22.70
2017,05,23,13,42,22.80
2017,05,23,13,43,22.80
2017,05,23,13,44,22.90
2017,05,23,13,45,23.00
2017,05,23,13,46,23.00
2017,05,23,13,47,23.10
2017,05,23,13,48,23.00
2017,05,23,13,49,22.90
2017,05,23,13,50,22.80
2017,05,23,13,51,22.80
2017,05,23,13,52,22.70
2017,05,23,13,53,22.70
2017,05,23,13,54,22.70
2017,05,23,13,55,22.70
2017,05,23,13,56,22.70
2017,05,23,13,57,22.70
2017,05,23,13,58,22.70
2017,05,23,13,59,22.70
2017,05,23,14,00,22.70
2017,05,23,14,01,22.60
2017,05,23,14,02,22.60
2017,05,23,14,03,22.70
2017,05,23,14,04,22.60
2017,05,23,14,05,22.50
2017,05,23,14,06,22.40
2017,05,23,14,07,22.30
2017,05,23,14,08,22.20
2017,05,23,14,09,22.20
2017,05,23,14,10,22.10
2017,05,23,14,11,22.10
2017,05,23,14,12,22.10
2017,05,23,14,13,22.10
2017,05,23,14,14,22.10
2017,05,23,14,15,22.10
2017,05,23,14,16,22.10
2017,05,23,14,17,22.00
2017,05,23,14,18,22.00
2017,05,23,14,19,22.10
2017,05,23,14,20,22.20
2017,05,23,14,21,22.30
2017,05,23,14,22,22.30
2017,05,23,14,23,22.30
2017,05,23,14,24,22.30
2017,05,23,14,25,22.50
2017,05,23,14,26,22.80
2017,05,23,14,27,22.90
2017,05,23,14,28,23.00
2017,05,23,14,29,23.10
2017,05,23,14,30,23.10
2017,05,23,14,31,23.20
2017,05,23,14,32,23.20
2017,05,23,14,33,23.30
2017,05,23,14,34,23.40
2017,05,23,14,35,23.40
2017,05,23,14,36,23.50
2017,05,23,14,37,23.60
2017,05,23,14,38,23.60
2017,05,23,14,39,23.70
2017,05,23,14,40,23.90
2017,05,23,14,41,24.00
2017,05,23,14,42,24.10
2017,05,23,14,43,24.20
2017,05,23,14,44,24.20
2017,05,23,14,45,24.20
2017,05,23,14,46,24.30
2017,05,23,14,47,24.30
2017,05,23,14,48,24.30
2017,05,23,14,49,24.30
2017,05,23,14,50,24.30
2017,05,23,14,51,24.20
2017,05,23,14,52,24.10
2017,05,23,14,53,24.00
2017,05,23,14,54,23.90
2017,05,23,14,55,23.80
2017,05,23,14,56,23.90
2017,05,23,14,57,23.90
2017,05,23,14,58,23.90
2017,05,23,14,59,23.90
2017,05,23,15,00,23.80
2017,05,23,15,01,23.80
2017,05,23,15,02,23.80
2017,05,23,15,03,23.80
2017,05,23,15,04,23.70
2017,05,23,15,05,23.50
2017,05,23,15,06,23.40
2017,05,23,15,07,23.40
2017,05,23,15,08,23.30
2017,05,23,15,09,23.20
2017,05,23,15,10,23.20
2017,05,23,15,11,23.10
2017,05,23,15,12,23.10
2017,05,23,15,13,23.00
2017,05,23,15,14,22.90
2017,05,23,15,15,22.80
2017,05,23,15,16,22.80
2017,05,23,15,17,22.70
2017,05,23,15,18,22.80
2017,05,23,15,19,22.80
2017,05,23,15,20,22.80
2017,05,23,15,21,22.80
2017,05,23,15,22,22.70
2017,05,23,15,23,22.70
2017,05,23,15,24,22.70
2017,05,23,15,25,22.70
2017,05,23,15,26,22.60
2017,05,23,15,27,22.60
2017,05,23,15,28,22.60
2017,05,23,15,29,22.60
2017,05,23,15,30,22.60
2017,05,23,15,31,22.60
2017,05,23,15,32,22.60
2017,05,23,15,33,22.70
2017,05,23,15,34,22.70
2017,05,23,15,35,22.70
2017,05,23,15,36,22.60
2017,05,23,15,37,22.60
2017,05,23,15,38,22.60
2017,05,23,15,39,22.60
2017,05,23,15,40,22.60
2017,05,23,15,41,22.70
2017,05,23,15,42,22.70
2017,05,23,15,43,22.80
2017,05,23,15,44,22.80
2017,05,23,15,45,22.70
2017,05,23,15,46,22.60
2017,05,23,15,47,22.50
2017,05,23,15,48,22.50
2017,05,23,15,49,22.50
2017,05,23,15,50,22.60
2017,05,23,15,51,22.60
2017,05,23,15,52,22.70
2017,05,23,15,53,22.70
2017,05,23,15,54,22.70
2017,05,23,15,55,22.70
2017,05,23,15,56,22.70
2017,05,23,15,57,22.70
2017,05,23,15,58,22.70
2017,05,23,15,59,22.80
2017,05,23,16,00,22.80
2017,05,23,16,01,22.90
2017,05,23,16,02,22.80
2017,05,23,16,03,22.80
2017,05,23,16,04,22.80
2017,05,23,16,05,22.80
2017,05,23,16,06,22.80
2017,05,23,16,07,22.70
2017,05,23,16,08,22.60
2017,05,23,16,09,22.50
2017,05,23,16,10,22.40
2017,05,23,16,11,22.40
2017,05,23,16,12,22.30
2017,05,23,16,13,22.30
2017,05,23,16,14,22.30
2017,05,23,16,15,22.30
2017,05,23,16,16,22.30
2017,05,23,16,17,22.30
2017,05,23,16,18,22.20
2017,05,23,16,19,22.20
2017,05,23,16,20,22.20
2017,05,23,16,21,22.20
2017,05,23,16,22,22.20
2017,05,23,16,23,22.20
2017,05,23,16,24,22.20
2017,05,23,16,25,22.20
2017,05,23,16,26,22.10
2017,05,23,16,27,22.10
2017,05,23,16,28,22.10
2017,05,23,16,29,22.00
2017,05,23,16,30,21.90
2017,05,23,16,31,21.80
2017,05,23,16,32,21.80
2017,05,23,16,33,21.70
2017,05,23,16,34,21.70
2017,05,23,16,35,21.60
2017,05,23,16,36,21.50
2017,05,23,16,37,21.40
2017,05,23,16,38,21.30
2017,05,23,16,39,21.20
2017,05,23,16,40,21.20
2017,05,23,16,41,21.20
2017,05,23,16,42,21.20
2017,05,23,16,43,21.10
2017,05,23,16,44,21.10
2017,05,23,16,45,21.20
2017,05,23,16,46,21.20
2017,05,23,16,47,21.20
2017,05,23,16,48,21.20
2017,05,23,16,49,21.30
2017,05,23,16,50,21.30
2017,05,23,16,51,21.30
2017,05,23,16,52,21.20
2017,05,23,16,53,21.10
2017,05,23,16,54,21.00
2017,05,23,16,55,21.00
2017,05,23,16,56,21.00
2017,05,23,16,57,20.90
2017,05,23,16,58,20.90
2017,05,23,16,59,20.80
2017,05,23,17,00,20.70
2017,05,23,17,01,20.70
2017,05,23,17,02,20.70
2017,05,23,17,03,20.70
2017,05,23,17,04,20.70
2017,05,23,17,05,20.70
2017,05,23,17,06,20.70
2017,05,23,17,07,20.70
2017,05,23,17,08,20.60
2017,05,23,17,09,20.60
2017,05,23,17,10,20.60
2017,05,23,17,11,20.60
2017,05,23,17,12,20.60
2017,05,23,17,13,20.60
2017,05,23,17,14,20.60
2017,05,23,17,15,20.60
2017,05,23,17,16,20.60
2017,05,23,17,17,20.60
2017,05,23,17,18,20.50
2017,05,23,17,19,20.50